Location: Ferchesar
(52.6477°N, 12.4298°E)
Time: 17:21:12
(UTC+01:00)

Explorer 7 - Pass Details

Date: 09 December 2021
Orbit: 483 x 674 km, 50.3° (Epoch: 23 January)

Event Time Altitude Azimuth Distance (km) Brightness Sun altitude
Rises 06:34:24 0° 262° (W) 2,824 - -13.4°
Reaches altitude 10° 06:36:45 10° 259° (W) 1,889 - -13.0°
Exits shadow 06:37:34 15° 257° (WSW) 1,575 8.6 -12.9°
Maximum altitude 06:41:00 64° 178° (S) 614 7.1 -12.4°
Drops below altitude 10° 06:45:00 10° 97° (E) 1,774 10.8 -11.9°
Sets 06:47:09 0° 95° (E) 2,635 11.9 -11.6°
